TimePST,TemperatureF,Dew PointF,Humidity,Sea Level PressureIn,VisibilityMPH,Wind Direction,Wind SpeedMPH,Gust SpeedMPH,PrecipitationIn,Events,Conditions,WindDirDegrees,DateUTC
12:47 AM,48.2,48.2,100,30.54,0.5,Calm,Calm,-,N/A,Fog,Fog,0,2013-03-01 08:47:00
1:56 AM,48.9,48.9,100,30.54,0.8,Calm,Calm,-,N/A,,Mist,0,2013-03-01 09:56:00
2:45 AM,48.2,48.2,100,30.53,1.0,Calm,Calm,-,N/A,,Mist,0,2013-03-01 10:45:00
2:56 AM,48.9,48.9,100,30.52,1.0,Calm,Calm,-,0.01,,Mist,0,2013-03-01 10:56:00
3:15 AM,48.2,48.2,100,30.52,0.8,Calm,Calm,-,N/A,,Mist,0,2013-03-01 11:15:00
4:08 AM,48.2,48.2,100,30.51,1.0,East,3.5,-,N/A,,Overcast,90,2013-03-01 12:08:00
4:33 AM,48.2,48.2,100,30.51,1.0,East,4.6,-,N/A,,Mist,80,2013-03-01 12:33:00
4:46 AM,48.2,48.2,100,30.51,1.8,East,4.6,-,N/A,,Overcast,80,2013-03-01 12:46:00
5:16 AM,48.2,48.2,100,30.50,2.5,Calm,Calm,-,N/A,,Overcast,0,2013-03-01 13:16:00
5:23 AM,48.2,48.2,100,30.51,3.0,Calm,Calm,-,N/A,,Overcast,0,2013-03-01 13:23:00
5:41 AM,48.2,48.2,100,30.50,10.0,ENE,3.5,-,N/A,,Overcast,70,2013-03-01 13:41:00
6:07 AM,48.2,46.4,93,30.49,10.0,East,3.5,-,N/A,,Mostly Cloudy,90,2013-03-01 14:07:00
6:20 AM,46.4,46.4,100,30.48,10.0,East,6.9,-,N/A,,Scattered Clouds,80,2013-03-01 14:20:00
6:56 AM,46.0,46.0,100,30.46,10.0,East,4.6,-,N/A,,Clear,80,2013-03-01 14:56:00
7:56 AM,46.9,46.9,100,30.47,8.0,Calm,Calm,-,N/A,,Clear,0,2013-03-01 15:56:00
8:56 AM,48.9,48.0,97,30.49,10.0,West,3.5,-,N/A,,Clear,260,2013-03-01 16:56:00
9:06 AM,50.0,48.2,94,30.49,10.0,WNW,3.5,-,N/A,,Scattered Clouds,300,2013-03-01 17:06:00
9:33 AM,51.8,50.0,94,30.48,10.0,Calm,Calm,-,N/A,,Mostly Cloudy,0,2013-03-01 17:33:00
9:56 AM,53.1,48.9,86,30.49,10.0,Calm,Calm,-,N/A,,Mostly Cloudy,0,2013-03-01 17:56:00
10:40 AM,-9999,-9999,N/A,30.48,7.0,NW,5.8,-,N/A,,Scattered Clouds,310,2013-03-01 18:40:00
10:56 AM,52.0,50.0,93,30.48,7.0,NW,5.8,-,N/A,,Clear,320,2013-03-01 18:56:00
11:53 AM,51.8,48.2,88,30.47,2.5,WNW,8.1,-,N/A,,Partly Cloudy,290,2013-03-01 19:53:00
11:56 AM,51.1,48.9,92,30.47,1.5,NW,8.1,-,N/A,,Scattered Clouds,320,2013-03-01 19:56:00
12:00 PM,51.8,48.2,88,30.46,1.0,NW,8.1,-,N/A,,Mist,310,2013-03-01 20:00:00
12:11 PM,51.8,48.2,88,30.47,0.5,NW,9.2,-,N/A,Fog,Fog,320,2013-03-01 20:11:00
12:56 PM,51.1,48.9,92,30.45,0.8,North,6.9,-,N/A,,Mist,350,2013-03-01 20:56:00
1:54 PM,51.8,50.0,94,30.42,1.5,North,4.6,-,N/A,,Overcast,350,2013-03-01 21:54:00
2:04 PM,51.8,50.0,94,30.42,10.0,NNW,5.8,-,N/A,,Mostly Cloudy,330,2013-03-01 22:04:00
2:16 PM,53.6,50.0,88,30.41,10.0,North,8.1,-,N/A,,Scattered Clouds,360,2013-03-01 22:16:00
2:56 PM,51.1,46.9,86,30.40,4.0,WNW,11.5,-,N/A,,Partly Cloudy,300,2013-03-01 22:56:00
2:59 PM,50.0,46.4,87,30.40,1.5,NW,9.2,-,N/A,,Scattered Clouds,310,2013-03-01 22:59:00
3:01 PM,50.0,46.4,87,30.40,0.8,NW,9.2,-,N/A,,Mist,310,2013-03-01 23:01:00
3:56 PM,48.9,46.9,93,30.39,0.5,NNW,5.8,-,N/A,Fog,Fog,330,2013-03-01 23:56:00
4:20 PM,48.2,46.4,93,30.38,1.5,NNW,6.9,-,N/A,,Overcast,330,2013-03-02 00:20:00
4:24 PM,48.2,46.4,93,30.38,0.8,NNW,5.8,-,N/A,,Overcast,330,2013-03-02 00:24:00
4:49 PM,48.2,46.4,93,30.38,1.0,NNW,4.6,-,N/A,,Overcast,340,2013-03-02 00:49:00
4:56 PM,48.9,46.9,93,30.38,1.5,Calm,Calm,-,N/A,,Overcast,0,2013-03-02 00:56:00
4:59 PM,48.2,48.2,100,30.37,3.0,North,3.5,-,N/A,,Overcast,360,2013-03-02 00:59:00
5:23 PM,48.2,46.4,93,30.36,1.8,NNW,3.5,-,N/A,,Overcast,340,2013-03-02 01:23:00
5:36 PM,48.2,46.4,93,30.36,0.8,NNW,4.6,-,N/A,,Overcast,330,2013-03-02 01:36:00
5:56 PM,48.0,46.9,96,30.37,0.2,NW,4.6,-,N/A,Fog,Fog,320,2013-03-02 01:56:00
6:30 PM,46.4,44.6,93,30.36,1.0,NW,5.8,-,N/A,,Mist,320,2013-03-02 02:30:00
6:56 PM,46.0,45.0,96,30.38,1.5,NNW,4.6,-,N/A,,Overcast,330,2013-03-02 02:56:00
7:04 PM,46.4,46.4,100,30.37,0.8,NNW,3.5,-,N/A,,Overcast,330,2013-03-02 03:04:00
7:29 PM,46.4,46.4,100,30.37,1.0,NNW,4.6,-,N/A,,Mist,340,2013-03-02 03:29:00
7:39 PM,46.4,46.4,100,30.37,0.8,North,4.6,-,N/A,,Mist,350,2013-03-02 03:39:00
7:56 PM,46.9,46.9,100,30.38,0.8,North,4.6,-,N/A,,Mist,10,2013-03-02 03:56:00
8:56 PM,46.9,46.0,97,30.38,1.0,NNW,4.6,-,N/A,,Overcast,340,2013-03-02 04:56:00
9:05 PM,46.4,46.4,100,30.37,1.8,NNW,4.6,-,N/A,,Overcast,340,2013-03-02 05:05:00
9:13 PM,46.4,46.4,100,30.37,1.8,North,4.6,-,N/A,,Overcast,350,2013-03-02 05:13:00
9:27 PM,46.4,46.4,100,30.37,2.0,NNW,5.8,-,N/A,,Overcast,340,2013-03-02 05:27:00
9:30 PM,46.4,46.4,100,30.37,1.8,North,5.8,-,N/A,,Overcast,350,2013-03-02 05:30:00
9:36 PM,46.4,46.4,100,30.37,0.8,NNW,4.6,-,N/A,,Overcast,340,2013-03-02 05:36:00
9:46 PM,46.4,44.6,93,30.37,1.2,NNW,5.8,-,N/A,,Overcast,340,2013-03-02 05:46:00
9:56 PM,46.9,46.0,97,30.38,1.0,NNW,4.6,-,N/A,,Mist,330,2013-03-02 05:56:00
10:06 PM,46.4,46.4,100,30.37,0.8,NNW,4.6,-,N/A,,Mist,330,2013-03-02 06:06:00
10:56 PM,46.9,46.0,97,30.35,0.8,Calm,Calm,-,N/A,,Mist,0,2013-03-02 06:56:00
11:56 PM,46.9,46.0,97,30.35,0.8,Calm,Calm,-,N/A,,Mist,0,2013-03-02 07:56:00